This demonstration page uses our WeatherBlox Daily Observations layout. Learn more.

Left ArrowRight Arrow

38.88101, -77.10428

Hourly Observations for November 2, 2018

Temp ( °F °C ) Dew Point ( °F °C ) Humidity (%) Winds ( mph kmh ) Pressure ( in mb ) Visibility ( mi km ) Precip ( " mm )
12:00 am 00:00 Cloudy 67 19.4 61 16.1 81 81 S 14 22 29.71 1006 10 16.0934 0 0
12:48 am 00:48 Cloudy 66 19 61 16 83 83 S 15 24 29.71 1006 10 16.0934 0 0
12:52 am 00:52 Cloudy 67 19.4 61 16.1 81 81 S 14 22 29.71 1006 10 16.0934 0 0
1:52 am 01:52 Cloudy 69 20.6 61 16.1 76 76 S 15 24 29.71 1006 10 16.0934 0 0.0254
2:52 am 02:52 Cloudy 67 19.4 60 15.6 79 79 S 14 22 29.69 1006 10 16.0934 0 0
3:52 am 03:52 Cloudy 67 19.4 60 15.6 79 79 S 13 20 29.68 1005 10 16.0934 0 0
4:52 am 04:52 Cloudy 68 20 61 16.1 78 78 S 13 20 29.67 1005 10 16.0934 0 0
5:26 am 05:26 Cloudy 68 20 61 16.1 78 78 S 12 19 29.68 1005 10 16.0934 0 0
5:52 am 05:52 Cloudy 71 21.7 62 16.7 73 73 S 13 20 29.68 1005 10 16.0934 0 0
6:14 am 06:14 Cloudy 71 21.7 62 16.7 73 73 S 12 19 29.68 1005 10 16.0934 0 0
6:27 am 06:27 Cloudy 68 20 61 16.1 78 78 S 10 17 29.68 1005 10 16.0934 0 0
6:37 am 06:37 Cloudy 69 20.6 62 16.7 78 78 S 10 17 29.68 1005 10 16.0934 0 0
6:52 am 06:52 Cloudy 68 20 61 16.1 78 78 S 14 22 29.68 1005 10 16.0934 0 0
7:36 am 07:36 Cloudy 71 21.7 62 16.7 73 73 S 12 19 29.68 1005 10 16.0934 0 0
7:44 am 07:44 Cloudy 69 20.6 62 16.7 78 78 S 10 17 29.68 1005 10 16.0934 0 0
7:52 am 07:52 Cloudy 67 19.4 61 16.1 81 81 S 10 17 29.68 1005 10 16.0934 0 0
8:52 am 08:52 Mostly Sunny 66 18.9 60 15.6 81 81 S 10 17 29.69 1006 10 16.0934 0 0
9:52 am 09:52 Mostly Cloudy 71 21.7 63 17.2 76 76 S 10 17 29.71 1006 10 16.0934 0 0
10:52 am 10:52 Mostly Cloudy 71 21.7 63 17.2 76 76 S 13 20 29.72 1006 10 16.0934 0 0
11:52 am 11:52 Mostly Sunny 72 22.2 63 17.2 73 73 S 13 20 29.72 1007 10 16.0934 0 0
12:52 pm 12:52 Cloudy 73 22.8 62 16.7 69 69 S 9 15 29.7 1006 10 16.0934 0 0
1:52 pm 13:52 Cloudy 72 22.2 61 16.1 68 68 S 14 22 29.69 1005 10 16.0934 0 0
2:52 pm 14:52 Cloudy 70 21.1 60 15.6 71 71 S 10 17 29.67 1005 10 16.0934 0 0
2:59 pm 14:59 Cloudy 70 21.1 60 15.6 71 71 S 12 19 29.68 1005 10 16.0934 0 0
3:52 pm 15:52 Cloudy 69 20.6 60 15.6 73 73 S 10 17 29.65 1004 10 16.0934 0 0
4:52 pm 16:52 Cloudy 68 20 60 15.6 76 76 S 10 17 29.66 1004 10 16.0934 0 0
5:24 pm 17:24 Cloudy with Light Rain 70 21.1 61 16.1 73 73 S 7 11 29.65 1004 10 16.0934 0 0.0254
5:52 pm 17:52 Cloudy 67 19.4 60 15.6 79 79 S 9 15 29.65 1004 10 16.0934 0 0.0254
6:52 pm 18:52 Cloudy with Light Rain 67 19.4 62 16.7 84 84 SE 8 13 29.63 1003 9 14.48406 0.01 0.254
7:52 pm 19:52 Cloudy with Light Rain 67 19.4 63 17.2 87 87 SSE 8 13 29.6 1002 10 16.0934 0.01 0.254
8:52 pm 20:52 Cloudy 67 19.4 63 17.2 87 87 S 10 17 29.57 1002 10 16.0934 0 0.0254
9:01 pm 21:01 Cloudy 67 19.4 63 17.2 87 87 S 14 22 29.56 1001 10 16.0934 0 0
9:06 pm 21:06 Cloudy 67 19.4 63 17.2 87 87 S 13 20 29.59 1002 10 16.0934 0 0
9:37 pm 21:37 Cloudy with Heavy Rain 57 13.9 53 11.7 87 87 NNW 18 30 29.62 1003 5 8.0467 0.02 0.508
9:44 pm 21:44 Cloudy with Heavy Rain 57 13.9 53 11.7 87 87 N 15 24 29.62 1003 3 4.82802 0.13 3.302
9:52 pm 21:52 Cloudy with Heavy Rain 57 13.9 53 11.7 87 87 NW 12 19 29.63 1003 2 3.21868 0.2 5.08
9:55 pm 21:55 Cloudy with Heavy Rain 57 13.9 53 11.7 87 87 NNW 8 13 29.65 1004 1.75 2.816345 0.09 2.286
9:57 pm 21:57 Cloudy with Heavy Rain 57 13.9 53 11.7 87 87 N 10 17 29.65 1004 1.75 2.816345 0.11 2.794
9:59 pm 21:59 Cloudy with Heavy Rain 57 13.9 53 11.7 87 87 N 6 9 29.65 1004 2 3.21868 0.12 3.048
10:02 pm 22:02 Cloudy with Rain 57 13.9 53 11.7 87 87 N 8 13 29.65 1004 4 6.43736 0.13 3.302
10:10 pm 22:10 Cloudy with Rain 57 13.9 53 11.7 87 87 N 16 26 29.65 1004 9 14.48406 0.14 3.556
10:23 pm 22:23 Cloudy with Heavy Rain 56 13.3 52 11.1 87 87 NNW 15 24 29.65 1004 2.5 4.02335 0.22 5.588
10:25 pm 22:25 Cloudy with Heavy Rain 56 13.3 52 11.1 87 87 NNW 15 24 29.65 1004 2 3.21868 0.26 6.604
10:27 pm 22:27 Cloudy with Heavy Rain 56 13.3 53 11.7 90 90 NNW 15 24 29.65 1004 1.75 2.816345 0.3 7.62
10:37 pm 22:37 Cloudy with Heavy Rain 56 13.3 53 11.7 90 90 NNW 9 15 29.65 1004 2 3.21868 0.48 12.192
10:40 pm 22:40 Cloudy with Heavy Rain 56 13.3 53 11.7 90 90 NNW 9 15 29.65 1004 3 4.82802 0.49 12.446
10:52 pm 22:52 Cloudy with Rain 56 13.3 53 11.7 90 90 NNW 9 15 29.65 1004 5 8.0467 0.52 13.208
11:52 pm 23:52 Cloudy 57 13.9 53 11.7 87 87 NNW 10 17 29.67 1005 10 16.0934 0.01 0.254

Powered by AerisWeather